This demonstration page uses our WeatherBlox Daily Observations layout. Learn more.

Hourly Observations for October 18, 2020

Temp ( °F °C ) Dew Point ( °F °C ) Humidity (%) Winds ( mph kmh ) Pressure ( in mb ) Visibility ( mi km ) Precip ( " mm )
12:32 am 00:32 Cloudy 32 0 30 -1 93 93 E 6 9 30.28 1025 10 16.0934 0 0
12:41 am 00:41 Cloudy 32 0 30 -1.1 92 92 E 5 7 30.27 1025 10 16.0934 0 0
12:53 am 00:53 Cloudy 32 0 29 -1.7 88 88 E 6 9 30.16 1022 8 12.87472 0 0
1:44 am 01:44 Cloudy 32 0 28 -2 87 87 E 7 11 30.28 1025 10 16.0934 0 0
1:53 am 01:53 Cloudy 32 0 29 -1.7 88 88 E 6 9 30.18 1022 10 16.0934 0 0
2:09 am 02:09 Cloudy 32 0 29 -1.7 88 88 E 7 11 30.28 1025 7 11.26538 0 0
2:29 am 02:29 Cloudy with Mist and Fog 31 -0.6 30 -1.1 96 96 E 6 9 30.29 1026 3 4.82802 0 0
2:37 am 02:37 Cloudy with Light Freezing Rain 31 -0.6 30 -1.1 96 96 E 7 11 30.29 1026 3 4.82802 0.001 0.001
2:51 am 02:51 Cloudy with Mist and Fog 30 -1 28 -2 93 93 ENE 8 13 30.31 1026 3 4.82802 0.001 0.001
2:53 am 02:53 Cloudy with Mist and Fog 31 -0.6 29 -1.7 92 92 ENE 8 13 30.21 1023 3 4.82802 0.001 0.001
3:01 am 03:01 Cloudy with Mist and Fog 31 -0.6 29 -1.7 92 92 ENE 8 13 30.31 1026 4 6.43736 0 0
3:35 am 03:35 Cloudy with Mist and Fog 31 -0.6 29 -1.7 92 92 ENE 8 13 30.31 1026 4 6.43736 0 0
3:53 am 03:53 Cloudy with Mist and Fog 31 -0.6 29 -1.7 92 92 NE 8 13 30.23 1024 4 6.43736 0 0
4:23 am 04:23 Cloudy with Mist and Fog 31 -0.6 29 -1.7 92 92 NE 9 15 30.32 1027 4 6.43736 0 0
4:39 am 04:39 Cloudy with Mist and Fog 30 -1.1 29 -1.7 96 96 NE 10 17 30.33 1027 4 6.43736 0 0
4:50 am 04:50 Cloudy with Mist and Fog 30 -1 28 -2 93 93 NE 8 13 30.33 1027 5 8.0467 0 0
4:53 am 04:53 Cloudy with Mist and Fog 30 -1.1 29 -1.7 96 96 NE 7 11 30.24 1024 6 9.65604 0 0
5:22 am 05:22 Cloudy with Mist and Fog 30 -1.1 28 -2.2 92 92 NE 10 17 30.34 1027 5 8.0467 0 0
5:53 am 05:53 Cloudy with Mist and Fog 30 -1.1 29 -1.7 96 96 NE 9 15 30.27 1025 5 8.0467 0 0
6:46 am 06:46 Cloudy 30 -1.1 27 -2.8 88 88 E 9 15 30.35 1028 10 16.0934 0 0
6:53 am 06:53 Cloudy 30 -1.1 27 -2.8 88 88 E 10 17 30.29 1026 10 16.0934 0 0
7:53 am 07:53 Cloudy 30 -1.1 27 -2.8 88 88 E 9 15 30.3 1026 10 16.0934 0 0
8:53 am 08:53 Cloudy 31 -0.6 28 -2.2 89 89 SE 9 15 30.31 1026 10 16.0934 0 0
9:01 am 09:01 Cloudy 31 -0.6 28 -2.2 89 89 SE 10 17 30.35 1028 10 16.0934 0 0
9:23 am 09:23 Cloudy 31 -0.6 28 -2.2 89 89 SSE 10 17 30.35 1028 10 16.0934 0 0
9:53 am 09:53 Cloudy 32 0 28 -2.2 85 85 SSE 12 19 30.29 1026 10 16.0934 0 0
10:53 am 10:53 Cloudy 33 0.6 30 -1.1 89 89 SE 13 20 30.28 1025 10 16.0934 0 0
11:53 am 11:53 Cloudy 35 1.7 31 -0.6 85 85 SE 10 17 30.25 1024 10 16.0934 0 0
12:53 pm 12:53 Cloudy 36 2.2 30 -1.1 79 79 SSE 15 24 30.21 1023 10 16.0934 0 0
1:53 pm 13:53 Cloudy 36 2.2 30 -1.1 79 79 SSE 14 22 30.17 1022 10 16.0934 0 0
2:53 pm 14:53 Cloudy 36 2.2 30 -1.1 79 79 SSE 16 26 30.13 1020 10 16.0934 0 0
3:53 pm 15:53 Cloudy 36 2.2 30 -1.1 79 79 SSE 16 26 30.11 1020 10 16.0934 0 0
4:53 pm 16:53 Cloudy 37 2.8 31 -0.6 79 79 SE 16 26 30.1 1019 10 16.0934 0 0
5:25 pm 17:25 Cloudy 37 2.8 31 -0.6 79 79 SE 14 22 30.1 1019 10 16.0934 0 0
5:53 pm 17:53 Cloudy 37 2.8 31 -0.6 79 79 SE 14 22 30.09 1019 10 16.0934 0 0
6:53 pm 18:53 Mostly Cloudy 36 2.2 31 -0.6 82 82 ESE 15 24 30.1 1019 10 16.0934 0 0
7:04 pm 19:04 Partly Cloudy 35 1.7 31 -0.6 85 85 ESE 14 22 30.13 1020 10 16.0934 0 0
7:53 pm 19:53 Mostly Cloudy 35 1.7 30 -1.1 82 82 ESE 17 28 30.1 1019 10 16.0934 0 0
8:53 pm 20:53 Cloudy with Light Rain 35 1.7 33 0.6 93 93 ESE 16 26 30.11 1020 9 14.48406 0.01 0.254
9:53 pm 21:53 Partly Cloudy 34 1.1 33 0.6 97 97 SE 13 20 30.11 1020 10 16.0934 0.001 0.001
10:53 pm 22:53 Partly Cloudy 33 0.6 32 0 96 96 ESE 10 17 30.09 1019 10 16.0934 0 0
11:53 pm 23:53 Mostly Clear 32 0 31 -0.6 96 96 E 10 17 30.07 1018 10 16.0934 0 0

Powered by AerisWeather